Previsão horária em Abakonovo

Hoje, 29 Setembro, Terça-feira

Tempo Temperatura Precipitação Vento Pressão Humidade
00:00 +10°C° 0 mm 2 m/s 748 mmHg 96%
01:00 +10°C° 0 mm 2 m/s 748 mmHg 96%
02:00 +11°C° 0 mm 1 m/s 748 mmHg 96%
03:00 +10°C° 0 mm 2 m/s 748 mmHg 96%
04:00 +10°C° 0 mm 2 m/s 748 mmHg 96%
05:00 +10°C° 0 mm 2 m/s 748 mmHg 96%
06:00 +10°C° 0 mm 2 m/s 748 mmHg 94%
07:00 +10°C° 0 mm 2 m/s 748 mmHg 92%
08:00 +10°C° 0 mm 2 m/s 748 mmHg 91%
09:00 +13°C° 0 mm 2 m/s 748 mmHg 84%
10:00 +14°C° 0 mm 2 m/s 748 mmHg 78%
11:00 +16°C° 0 mm 2 m/s 748 mmHg 71%
12:00 +16°C° 0 mm 2 m/s 748 mmHg 68%
13:00 +17°C° 0 mm 2 m/s 748 mmHg 65%
14:00 +17°C° 0 mm 2 m/s 748 mmHg 62%
15:00 +16°C° 0 mm 2 m/s 748 mmHg 68%
16:00 +15°C° 0 mm 2 m/s 748 mmHg 74%
17:00 +14°C° 0 mm 2 m/s 747 mmHg 79%
18:00 +13°C° 0 mm 2 m/s 747 mmHg 84%
19:00 +13°C° 0 mm 2 m/s 747 mmHg 88%
20:00 +12°C° 0 mm 2 m/s 747 mmHg 93%
21:00 +10°C° 0 mm 2 m/s 747 mmHg 91%
22:00 +10°C° 0 mm 2 m/s 747 mmHg 90%
23:00 +10°C° 0 mm 2 m/s 747 mmHg 88%

Amanhã, 30 Setembro, Quarta-feira

Tempo Temperatura Precipitação Vento Pressão Humidade
00:00 +9°C° 0 mm 2 m/s 747 mmHg 85%
01:00 +9°C° 0 mm 2 m/s 747 mmHg 82%
02:00 +9°C° 0 mm 2 m/s 747 mmHg 80%
03:00 +9°C° 0 mm 2 m/s 747 mmHg 77%
04:00 +9°C° 0 mm 2 m/s 747 mmHg 75%
05:00 +9°C° 0 mm 2 m/s 746 mmHg 73%
06:00 +9°C° 0 mm 3 m/s 746 mmHg 70%
07:00 +10°C° 0 mm 3 m/s 747 mmHg 66%
08:00 +10°C° 0 mm 3 m/s 747 mmHg 63%
09:00 +12°C° 0 mm 3 m/s 747 mmHg 59%
10:00 +13°C° 0 mm 3 m/s 747 mmHg 54%
11:00 +16°C° 0 mm 3 m/s 747 mmHg 50%
12:00 +16°C° 0 mm 3 m/s 746 mmHg 50%
13:00 +17°C° 0 mm 4 m/s 746 mmHg 50%
14:00 +17°C° 0 mm 4 m/s 746 mmHg 50%
15:00 +16°C° 0 mm 3 m/s 746 mmHg 55%
16:00 +14°C° 0 mm 3 m/s 746 mmHg 61%
17:00 +13°C° 0 mm 3 m/s 746 mmHg 66%
18:00 +12°C° 0 mm 3 m/s 747 mmHg 69%
19:00 +11°C° 0 mm 3 m/s 747 mmHg 72%
20:00 +10°C° 0 mm 3 m/s 747 mmHg 75%
21:00 +10°C° 0 mm 3 m/s 747 mmHg 75%
22:00 +10°C° 0 mm 3 m/s 747 mmHg 75%
23:00 +9°C° 0 mm 3 m/s 747 mmHg 74%

Depois de amanhã, 1 Outubro, Quinta-feira

Tempo Temperatura Precipitação Vento Pressão Humidade
00:00 +9°C° 0 mm 3 m/s 747 mmHg 76%
01:00 +9°C° 0 mm 3 m/s 747 mmHg 77%
02:00 +9°C° 0 mm 3 m/s 747 mmHg 79%
03:00 +9°C° 0 mm 3 m/s 747 mmHg 80%
04:00 +8°C° 0 mm 3 m/s 747 mmHg 80%
05:00 +8°C° 0 mm 3 m/s 747 mmHg 81%
06:00 +9°C° 0 mm 3 m/s 747 mmHg 78%
07:00 +10°C° 0 mm 4 m/s 747 mmHg 74%
08:00 +10°C° 0 mm 4 m/s 747 mmHg 71%
09:00 +12°C° 0 mm 4 m/s 747 mmHg 65%
10:00 +14°C° 0 mm 4 m/s 747 mmHg 59%
11:00 +15°C° 0 mm 4 m/s 747 mmHg 53%
12:00 +17°C° 0 mm 4 m/s 747 mmHg 50%
13:00 +18°C° 0 mm 4 m/s 747 mmHg 48%
14:00 +17°C° 0 mm 5 m/s 747 mmHg 45%
15:00 +17°C° 0 mm 4 m/s 747 mmHg 51%
16:00 +15°C° 0 mm 4 m/s 747 mmHg 58%
17:00 +14°C° 0 mm 3 m/s 747 mmHg 64%
18:00 +13°C° 0 mm 3 m/s 747 mmHg 65%
19:00 +12°C° 0 mm 3 m/s 748 mmHg 66%
20:00 +11°C° 0 mm 3 m/s 748 mmHg 67%
21:00 +10°C° 0 mm 3 m/s 748 mmHg 67%
22:00 +10°C° 0 mm 3 m/s 748 mmHg 67%
23:00 +10°C° 0 mm 3 m/s 748 mmHg 67%

2 Outubro, Sexta-feira

Tempo Temperatura Precipitação Vento Pressão Humidade
00:00 +10°C° 0 mm 3 m/s 748 mmHg 67%
01:00 +10°C° 0 mm 3 m/s 748 mmHg 67%
02:00 +9°C° 0 mm 3 m/s 748 mmHg 67%
03:00 +9°C° 0 mm 3 m/s 748 mmHg 68%
04:00 +9°C° 0 mm 3 m/s 748 mmHg 70%
05:00 +9°C° 0 mm 3 m/s 748 mmHg 72%
06:00 +10°C° 0 mm 3 m/s 748 mmHg 70%
07:00 +10°C° 0 mm 3 m/s 748 mmHg 69%
08:00 +11°C° 0 mm 4 m/s 748 mmHg 67%
09:00 +12°C° 0 mm 4 m/s 749 mmHg 62%
10:00 +14°C° 0 mm 4 m/s 749 mmHg 58%
11:00 +15°C° 0 mm 4 m/s 749 mmHg 53%
12:00 +17°C° 0 mm 4 m/s 749 mmHg 52%
13:00 +18°C° 0 mm 4 m/s 749 mmHg 51%
14:00 +18°C° 0 mm 4 m/s 749 mmHg 50%
15:00 +17°C° 0 mm 4 m/s 749 mmHg 56%
16:00 +16°C° 0 mm 3 m/s 749 mmHg 61%
17:00 +14°C° 0 mm 3 m/s 749 mmHg 67%
18:00 +13°C° 0 mm 3 m/s 749 mmHg 69%
19:00 +13°C° 0 mm 3 m/s 749 mmHg 71%
20:00 +12°C° 0 mm 3 m/s 750 mmHg 73%
21:00 +12°C° 0 mm 3 m/s 750 mmHg 75%
22:00 +12°C° 0 mm 3 m/s 750 mmHg 76%
23:00 +12°C° 0 mm 3 m/s 750 mmHg 78%

3 Outubro, Sábado

Tempo Temperatura Precipitação Vento Pressão Humidade
00:00 +11°C° 0 mm 3 m/s 750 mmHg 79%
01:00 +11°C° 0 mm 3 m/s 749 mmHg 81%
02:00 +11°C° 0 mm 3 m/s 749 mmHg 82%
03:00 +11°C° 0 mm 3 m/s 749 mmHg 83%
04:00 +10°C° 0 mm 3 m/s 749 mmHg 83%
05:00 +10°C° 0 mm 3 m/s 749 mmHg 83%
06:00 +11°C° 0 mm 3 m/s 749 mmHg 81%
07:00 +11°C° 0 mm 3 m/s 749 mmHg 79%
08:00 +11°C° 0 mm 4 m/s 749 mmHg 76%
09:00 +13°C° 0 mm 4 m/s 749 mmHg 71%
10:00 +14°C° 0 mm 4 m/s 750 mmHg 65%
11:00 +15°C° 0 mm 4 m/s 750 mmHg 59%
12:00 +17°C° 0 mm 4 m/s 750 mmHg 58%
13:00 +17°C° 0 mm 4 m/s 749 mmHg 57%
14:00 +17°C° 0 mm 4 m/s 749 mmHg 57%
15:00 +15°C° 0 mm 4 m/s 749 mmHg 61%
16:00 +14°C° 0 mm 3 m/s 749 mmHg 65%
17:00 +13°C° 0 mm 3 m/s 749 mmHg 69%
18:00 +13°C° 0 mm 3 m/s 749 mmHg 69%
19:00 +12°C° 0 mm 3 m/s 749 mmHg 70%
20:00 +11°C° 0 mm 4 m/s 749 mmHg 70%
21:00 +11°C° 0 mm 3 m/s 749 mmHg 72%
22:00 +11°C° 0 mm 3 m/s 749 mmHg 73%
23:00 +10°C° 0 mm 3 m/s 749 mmHg 75%

4 Outubro, Domingo

Tempo Temperatura Precipitação Vento Pressão Humidade
00:00 +11°C° 0 mm 3 m/s 750 mmHg 73%
01:00 +11°C° 0 mm 3 m/s 750 mmHg 72%
02:00 +11°C° 0 mm 3 m/s 750 mmHg 70%
03:00 +11°C° 0 mm 3 m/s 750 mmHg 70%
04:00 +11°C° 0 mm 4 m/s 749 mmHg 71%
05:00 +11°C° 0 mm 4 m/s 749 mmHg 71%
06:00 +11°C° 0 mm 4 m/s 749 mmHg 70%
07:00 +11°C° 0 mm 4 m/s 749 mmHg 68%
08:00 +12°C° 0 mm 4 m/s 750 mmHg 67%
09:00 +13°C° 0 mm 4 m/s 750 mmHg 62%
10:00 +14°C° 0 mm 5 m/s 750 mmHg 57%
11:00 +16°C° 0 mm 5 m/s 750 mmHg 51%
12:00 +16°C° 0 mm 5 m/s 750 mmHg 50%
13:00 +17°C° 0 mm 5 m/s 749 mmHg 48%
14:00 +17°C° 0 mm 5 m/s 749 mmHg 46%
15:00 +16°C° 0 mm 5 m/s 749 mmHg 51%
16:00 +15°C° 0 mm 5 m/s 749 mmHg 55%
17:00 +14°C° 0 mm 4 m/s 749 mmHg 60%
18:00 +13°C° 0 mm 4 m/s 749 mmHg 61%
19:00 +13°C° 0 mm 4 m/s 749 mmHg 63%
20:00 +12°C° 0 mm 4 m/s 749 mmHg 65%
21:00 +12°C° 0 mm 4 m/s 749 mmHg 63%
22:00 +12°C° 0 mm 5 m/s 749 mmHg 62%
23:00 +12°C° 0 mm 5 m/s 749 mmHg 61%
Mostrar mais